Regional Weather Roundup
Issued by NWS Midland/Odessa, TX

Skip options and go directly to product.
Home | Oldest Version | Previous Version | Current Version | All | Text Only | Save Text | Print | Product List | Glossary Off

Skip product version selection by date and time.   

119
ASUS44 KMAF 221710
RWRMAF
MIDLAND AREA WEATHER ROUNDUP
NATIONAL WEATHER SERVICE MIDLAND TX
1100 AM CST MON DEC 22 2014

...IN SOUTHWEST TEXAS AND SOUTHEAST NEW MEXICO...

CITY           SKY/WX    TMP DP  RH WIND       PRES   REMARKS
ALPINE         CLOUDY    62  29  29 SW18      29.95F
ANDREWS        FAIR      61  32  32 NW13G23   29.77S
ARTESIA        CLOUDY    61  32  33 W15       29.81S
BIG SPRING     CLOUDY    61  33  34 N15G21    29.79R
CARLSBAD       CLOUDY    65  31  28 W16       29.78R
DRYDEN         NOT AVBL
FORT STOCKTON  CLOUDY    66  32  28 W12       29.81S
GUAD PASS      NOT AVBL
HOBBS          SUNNY     59  30  33 W14       29.80S
MARFA          PTSUNNY   54  28  37 W9        29.97S
MIDLAND AIRPK  CLOUDY    63  31  30 W12       29.78S
MIDLAND INTL   CLOUDY    64  31  28 W18G25    29.77S
ODESSA         CLOUDY    65  30  27 NW15G24   29.79R
PECOS          PTSUNNY   64  33  31 W20       29.80S
PRESIDIO       FAIR      63  31  30 SW9       29.91S
SEMINOLE       CLOUDY    59  32  36 NW9G16    29.79S
SNYDER         PTSUNNY   56  34  44 N13       29.76R
WINK           CLOUDY    63  30  28 W16       29.78S
$$
...OTHER STATIONS IN TEXAS...

CITY           SKY/WX    TMP DP  RH WIND       PRES   REMARKS
ABILENE        MOSUNNY   60  35  39 NW17      29.72R
AMARILLO       MOSUNNY   49  27  42 N26G33    29.74F
AUSTIN         PTSUNNY   65  54  67 S10G18    29.73F
BROWNSVILLE    MOSUNNY   71  63  75 S15       29.80S
CORPUS CHRISTI CLOUDY    63  61  93 S13       29.78F FOG
DALLAS FTW     MOSUNNY   61  44  53 SW13      29.60S
DEL RIO        CLOUDY    53  52  96 CALM      29.79F FOG
EL PASO        MOSUNNY   60  33  36 SW9       29.91R
HOUSTON INT    PTSUNNY   69  58  67 SW14G23   29.74F
LUBBOCK        PTSUNNY   51  33  50 N16G24    29.76R
SAN ANGELO     PTSUNNY   65  39  38 W10       29.74S
SAN ANTONIO    PTSUNNY   62  54  74 SW12      29.76F
WACO           MOSUNNY   64  49  57 SW14G20   29.65F
WICHITA FALLS  NOT AVBL
$$
...OTHER LOCATIONS IN NEW MEXICO...

CITY           SKY/WX    TMP DP  RH WIND       PRES   REMARKS
ALAMAGORDO     MOSUNNY   46  32  57 CALM      29.90F
ALBUQUERQUE    MOSUNNY   49  33  54 S8        29.90F
CANNON AFB     NOT AVBL
CLOVIS         PTSUNNY   46  27  46 N17       29.80S WCI  39
HOLLOMAN AFB   NOT AVBL
ROSWELL        CLOUDY    65  29  25 NW22G31   29.78R
RUIDOSO        SUNNY     50  25  37 NW33G49   29.86F
SANTA FE       PTSUNNY   45  29  53 W18       29.85S WCI  37
TRUTH OR CONSE SUNNY     59  32  36 NW17      29.92S
TUCUMCARI      CLOUDY    45  28  51 N8        29.81R
$$

USA.gov is the U.S. government's official web portal to all federal, state and local government web resources and services.